Date,TemperatureHighF,TemperatureAvgF,TemperatureLowF,DewpointHighF,DewpointAvgF,DewpointLowF,HumidityHigh,HumidityAvg,HumidityLow,PressureMaxIn,PressureMinIn,WindSpeedMaxMPH,WindSpeedAvgMPH,GustSpeedMaxMPH,PrecipitationSumIn
2013-1-1,37,35,29,31,28,18,82,76,64,30.00,29.85,8,3,17,0.00
2013-1-2,30,27,24,18,16,14,73,64,55,30.19,29.97,11,4,20,0.00
2013-1-3,32,26,19,21,17,14,85,70,54,30.20,30.09,9,3,18,0.00
2013-1-4,37,32,29,24,23,21,72,67,59,30.12,29.99,19,9,24,0.00
2013-1-5,37,31,26,25,22,20,84,69,59,30.33,30.05,10,4,21,0.00
2013-1-6,44,36,26,34,29,24,97,78,57,30.19,29.97,11,2,16,0.00
2013-1-7,41,36,25,31,28,22,91,73,59,30.38,30.08,10,3,15,0.00
2013-1-8,44,32,22,33,27,20,93,83,65,30.38,30.33,7,1,11,0.00
2013-1-9,43,34,24,39,31,23,95,90,78,30.36,30.16,6,2,9,0.01
2013-1-10,46,39,33,33,29,28,91,68,53,30.53,30.28,8,3,14,0.01
2013-1-11,44,39,33,40,34,27,98,84,69,30.47,30.06,7,2,14,0.40
2013-1-12,51,43,40,48,43,39,100,98,87,30.14,30.06,4,1,5,0.20
2013-1-13,47,44,39,47,44,39,100,100,99,30.10,29.93,5,2,9,0.01
2013-1-14,51,48,40,50,43,34,100,86,59,30.26,29.86,10,3,18,0.18
2013-1-15,40,36,33,38,31,27,97,83,72,30.32,30.16,7,2,11,0.24
2013-1-16,35,33,32,34,32,30,98,96,92,30.16,29.80,5,2,13,0.68
2013-1-17,39,37,35,35,31,28,97,78,68,30.09,29.93,10,3,20,0.01
2013-1-18,35,29,25,29,17,8,81,62,43,30.45,29.98,17,6,29,0.00
2013-1-19,50,36,25,32,26,15,79,66,47,30.37,29.88,14,6,22,0.00
2013-1-20,51,39,28,34,24,13,76,55,27,30.05,29.73,22,8,32,0.00
2013-1-21,31,26,23,23,14,10,83,60,54,30.08,29.83,14,4,23,0.00
2013-1-22,23,16,11,14,0,-4,71,49,40,30.24,29.88,18,10,30,0.00
2013-1-23,17,12,8,4,1,-2,71,59,47,30.28,30.14,13,4,20,0.00
2013-1-24,23,17,13,8,4,0,74,56,37,30.45,30.10,16,5,28,0.00
2013-1-25,19,14,7,14,5,0,92,68,49,30.46,30.05,9,2,14,0.00
2013-1-26,25,17,8,13,11,6,93,79,58,30.39,30.06,10,2,17,0.00
2013-1-27,32,19,6,18,12,3,89,75,51,30.55,30.39,6,1,11,0.00
2013-1-28,33,30,21,33,28,16,99,92,80,30.48,30.02,11,3,15,0.17
2013-1-29,57,43,33,52,42,33,99,94,82,30.10,29.98,7,2,11,0.08
2013-1-30,63,52,40,60,51,39,100,97,88,29.98,29.26,26,5,36,1.38
2013-1-31,54,35,27,54,22,12,100,59,49,29.80,29.23,26,15,41,2.44
2013-2-1,28,24,18,19,10,5,74,56,44,30.28,29.78,20,10,30,0.01
2013-2-2,23,19,13,21,12,5,94,73,57,30.31,30.01,13,5,22,0.00
2013-2-3,29,24,17,25,21,13,96,87,65,30.01,29.78,14,1,24,0.04
2013-2-4,29,24,18,22,13,10,82,64,53,30.03,29.88,15,6,23,0.01
2013-2-5,32,29,26,29,26,23,92,87,82,29.92,29.84,4,1,6,0.00
2013-2-6,37,31,24,29,25,20,98,81,61,30.27,29.90,14,4,22,0.01
2013-2-11,44,42,39,44,42,32,100,98,68,29.86,29.65,15,3,27,0.40
2013-2-12,43,38,29,32,27,24,84,64,53,29.96,29.75,18,6,27,0.01
2013-2-13,41,32,24,32,27,22,97,81,58,29.94,29.65,6,1,10,0.02
2013-2-14,43,36,32,32,30,27,98,82,55,29.97,29.70,8,2,11,0.11
2013-2-15,51,40,30,36,32,27,97,75,49,29.99,29.89,14,3,22,0.09
2013-2-16,33,31,28,32,26,16,99,83,58,29.96,29.80,8,3,16,0.11
2013-2-17,28,24,20,19,10,2,83,54,39,30.10,29.76,22,10,34,0.02
2013-2-18,35,25,18,18,11,6,65,54,37,30.31,30.10,12,6,26,0.00
2013-2-19,40,35,29,38,29,17,97,79,55,30.14,29.67,13,6,25,0.18
2013-2-20,34,27,22,25,14,10,74,59,50,30.06,29.77,18,11,32,0.03
2013-2-21,33,27,21,18,15,11,68,60,51,30.29,30.03,18,8,26,0.00
2013-2-22,33,28,22,29,21,15,85,73,65,30.36,30.21,8,2,14,0.00
2013-2-23,43,37,32,42,36,29,99,97,86,30.21,29.78,5,2,10,0.05
2013-2-24,41,37,31,38,30,20,99,78,58,30.03,29.75,18,6,29,0.01
2013-2-25,45,36,29,29,25,21,80,64,49,30.19,30.02,10,3,14,0.00
2013-2-26,42,34,26,35,29,22,95,81,64,30.21,29.70,24,8,35,0.16
2013-2-27,48,42,36,42,38,34,98,86,68,29.70,29.48,21,9,34,0.25
2013-2-28,43,39,34,36,32,28,91,76,56,29.65,29.55,11,4,19,0.03
2013-3-1,40,38,34,32,29,24,85,71,58,29.81,29.63,13,5,19,0.00
2013-3-2,36,33,30,25,23,21,74,66,58,29.82,29.73,12,5,17,0.00
2013-3-3,34,30,27,23,20,16,74,65,56,29.81,29.72,15,8,26,0.00
2013-3-4,36,31,27,23,19,16,69,63,56,29.97,29.81,16,10,27,0.00
2013-3-5,44,36,29,29,25,21,74,65,51,30.03,29.88,8,4,17,0.00
2013-3-6,39,37,34,35,31,27,93,81,67,29.95,29.72,22,12,40,0.22
2013-3-7,45,38,35,28,26,23,70,61,48,30.09,29.95,14,7,25,0.01
2013-3-8,43,37,29,29,25,21,88,63,55,30.24,30.07,17,9,30,0.00
2013-3-9,59,44,31,27,22,17,66,45,19,30.29,30.20,7,2,13,0.00
2013-3-10,57,45,30,33,26,18,72,48,31,30.29,30.19,12,5,21,0.00
2013-3-11,55,46,37,49,42,31,95,84,59,30.24,29.95,13,6,21,0.00
2013-3-12,55,50,42,54,46,31,98,86,66,29.95,29.67,16,8,28,1.31
2013-3-13,45,39,31,35,29,19,87,68,51,29.95,29.81,20,7,29,0.01
2013-3-14,39,33,28,22,17,13,75,52,37,30.00,29.92,21,10,33,0.01
2013-3-15,51,38,24,34,23,14,68,54,43,30.01,29.70,17,7,27,0.00
2013-3-16,47,35,30,33,29,24,95,79,58,29.90,29.71,9,3,17,0.00
2013-3-17,37,32,30,30,25,20,94,75,52,30.25,29.89,8,2,13,0.08
2013-3-18,34,31,28,32,22,14,97,71,50,30.32,29.86,12,5,19,0.09
2013-3-19,50,39,33,38,31,19,98,76,35,29.87,29.66,19,7,30,0.36
2013-3-20,45,37,31,24,20,17,69,50,34,29.90,29.74,19,8,29,0.02
2013-3-21,37,31,26,26,16,10,80,55,39,29.80,29.67,12,6,21,0.00
2013-3-22,39,31,25,25,20,16,83,65,49,29.93,29.77,17,8,27,0.00
2013-3-23,43,36,31,24,22,20,69,57,43,29.95,29.86,14,7,25,0.00
2013-3-24,44,36,23,27,21,19,85,58,39,29.96,29.64,10,2,14,0.00
2013-3-25,37,34,31,33,30,25,97,87,65,29.66,29.47,9,3,16,0.25
2013-3-26,48,38,32,35,31,26,97,78,42,29.89,29.62,11,3,19,0.09
2013-3-27,47,41,35,32,29,27,80,64,45,30.02,29.89,15,7,26,0.01
2013-3-28,46,40,34,32,29,27,79,64,47,30.14,29.99,11,5,21,0.00
2013-3-29,51,44,37,32,29,26,75,55,41,30.16,30.07,11,5,19,0.00
2013-3-30,56,43,29,34,28,25,88,59,31,30.17,30.06,12,2,17,0.00
2013-3-31,52,44,34,46,35,-100,98,75,49,30.09,29.68,16,4,25,0.03
2013-4-1,57,45,37,46,34,12,99,71,31,29.92,29.66,19,8,31,0.03
2013-4-2,42,36,30,18,15,12,57,43,31,30.11,29.92,16,7,28,0.01
2013-4-3,43,36,25,20,15,11,65,43,29,30.30,30.10,19,6,28,0.00
2013-4-4,49,37,25,25,18,11,68,47,31,30.39,30.04,14,4,20,0.00
2013-4-5,60,47,36,35,26,17,88,48,20,30.04,29.75,14,6,23,0.00
2013-4-6,51,42,33,22,19,15,57,40,26,30.28,29.99,12,4,20,0.00
2013-4-7,61,50,39,45,36,22,81,58,43,30.24,29.93,23,10,33,0.00
2013-4-8,75,62,45,52,47,41,87,60,42,30.03,29.89,13,3,21,0.00
2013-4-9,81,69,53,56,52,48,86,58,32,29.98,29.84,17,5,25,0.00
2013-4-10,85,71,56,64,57,51,98,65,41,29.88,29.68,17,5,35,0.28
2013-4-11,69,60,51,63,57,45,100,89,76,29.86,29.74,19,6,27,0.30
2013-4-12,50,45,43,45,44,42,99,95,84,29.85,29.62,19,10,32,0.49
2013-4-13,58,50,40,43,38,33,98,67,44,29.93,29.73,15,5,21,0.03
2013-4-14,61,50,38,40,34,25,88,57,34,30.11,29.94,16,4,23,0.00
2013-4-15,61,52,47,47,40,32,77,64,52,30.28,30.09,10,6,16,0.00
2013-4-16,68,58,50,58,51,45,85,78,66,30.28,30.07,16,8,28,0.01
2013-4-17,70,60,54,57,48,39,99,69,34,30.20,30.05,11,3,18,0.02
2013-4-18,61,58,55,59,50,37,94,77,47,30.22,29.98,10,5,17,0.11
2013-4-19,73,64,51,65,60,50,99,89,75,29.98,29.52,23,11,40,0.83
2013-4-20,54,48,43,48,33,25,97,58,37,30.31,29.71,17,8,25,0.87
2013-4-21,52,43,34,35,25,20,76,49,35,30.56,30.30,10,4,17,0.00
2013-4-22,53,44,34,35,32,29,87,65,47,30.57,30.41,13,6,22,0.00
2013-4-23,55,47,41,44,39,34,83,74,61,30.41,30.10,11,4,15,0.00
2013-4-24,69,53,37,59,48,36,98,84,64,30.10,29.74,17,5,24,0.05
2013-4-25,60,50,42,50,33,28,76,53,31,30.25,29.90,20,7,37,0.05
2013-4-26,61,51,40,38,33,24,83,53,26,30.40,30.25,10,3,16,0.00
2013-4-27,67,54,38,41,34,30,77,51,29,30.40,30.23,9,3,13,0.00
2013-4-28,67,56,42,47,39,-100,89,58,35,30.25,30.12,15,4,25,0.02
2013-4-29,56,54,50,55,50,38,98,89,57,30.14,30.05,8,5,14,0.33
2013-4-30,67,58,51,53,48,34,98,72,43,30.27,30.10,13,5,18,0.01
2013-5-1,68,57,44,43,35,28,69,46,26,30.41,30.27,11,4,20,0.00
2013-5-2,70,57,41,47,43,39,92,62,35,30.41,30.27,9,2,18,0.00
2013-5-3,65,56,46,45,40,35,86,59,33,30.36,30.27,13,5,19,0.00
2013-5-4,68,55,40,48,41,38,92,63,37,30.32,30.15,11,3,17,0.00
2013-5-5,65,53,41,43,40,38,91,64,39,30.23,30.11,12,4,17,0.00
2013-5-6,65,54,41,55,48,38,96,81,67,30.19,30.06,10,4,15,0.00
2013-5-7,69,60,52,61,56,50,99,87,65,30.09,29.97,13,7,24,0.18
2013-5-8,72,62,57,62,57,52,98,86,53,30.00,29.86,13,4,17,0.28
2013-5-9,68,60,53,59,56,52,98,86,70,29.93,29.87,10,3,15,0.01
2013-5-10,80,65,51,63,55,-100,100,77,42,29.97,29.83,10,2,16,0.55
2013-5-11,72,64,60,64,61,56,99,92,72,29.87,29.65,11,5,18,1.11
2013-5-12,60,55,49,56,38,-100,88,58,32,29.95,29.68,16,7,28,0.33
2013-5-13,52,46,38,34,30,24,80,53,33,30.11,29.95,11,5,21,0.00
2013-5-14,59,47,33,43,31,25,90,58,27,30.15,30.00,10,3,20,0.01
2013-5-15,70,59,48,59,51,42,89,76,66,30.04,29.66,16,4,22,0.04
2013-5-16,81,62,56,66,36,-100,98,76,37,29.84,29.68,10,3,18,0.06
2013-5-17,75,65,52,53,44,38,75,48,28,30.12,29.84,8,3,13,0.04
2013-5-18,68,62,58,56,51,42,94,67,47,30.21,30.12,7,3,14,0.04
2013-5-19,63,60,57,62,59,56,98,96,91,30.20,30.09,10,4,13,0.04
2013-5-20,80,68,60,69,64,59,100,88,67,30.11,29.93,7,2,12,0.00
2013-5-21,83,73,62,72,68,61,100,85,67,29.94,29.80,12,4,19,0.00
2013-5-22,88,76,67,72,68,64,98,80,45,29.86,29.75,15,5,22,0.00
2013-5-23,75,69,63,70,66,61,95,90,80,29.84,29.69,12,5,22,0.46
2013-5-24,63,54,45,62,49,37,98,84,66,30.05,29.66,17,7,29,0.15
2013-5-25,61,52,44,40,36,34,83,56,37,30.07,29.98,18,9,31,0.01
2013-5-26,69,57,45,41,37,34,74,48,28,30.16,30.04,15,7,29,0.00
2013-5-27,70,58,40,46,41,37,90,56,30,30.23,30.11,12,3,15,0.00
2013-5-28,64,59,54,62,55,46,98,89,68,30.17,30.05,6,2,10,0.30
2013-5-29,87,73,59,70,64,59,100,78,48,30.06,29.98,12,5,21,0.01
2013-5-30,89,78,63,70,66,62,98,70,43,30.11,30.03,9,3,20,0.01
2013-5-31,90,79,65,71,66,60,96,68,38,30.08,29.95,13,4,21,0.00
2013-6-1,89,79,66,71,68,64,95,71,50,29.98,29.84,13,4,21,0.00
2013-6-2,83,78,72,70,67,-100,87,72,59,29.85,29.74,18,9,27,0.04
2013-6-3,78,71,64,68,64,57,97,79,52,29.85,29.76,8,3,15,0.30
2013-6-4,74,64,55,57,47,43,80,56,37,30.07,29.86,8,3,19,0.13
2013-6-5,77,66,52,51,46,40,81,51,35,30.16,30.02,8,2,14,0.00
2013-6-6,70,64,59,62,56,48,94,76,55,30.07,29.88,11,4,17,0.32
2013-6-7,65,63,61,64,62,60,99,97,95,29.88,29.57,9,5,15,1.46
2013-6-8,75,67,61,64,62,59,98,85,64,30.05,29.62,8,3,15,0.12
2013-6-9,80,69,55,65,60,54,98,76,48,30.15,30.04,9,2,16,0.00
2013-6-10,75,69,64,73,67,63,99,94,80,30.09,29.72,13,4,22,1.44
2013-6-11,78,72,65,71,65,60,100,81,64,29.75,29.67,14,7,24,0.09
2013-6-12,80,72,63,64,62,59,89,70,52,29.80,29.75,11,4,19,0.00
2013-6-13,81,70,59,69,64,57,98,80,61,29.79,29.36,15,6,23,0.59
2013-6-14,76,65,56,58,55,51,96,73,48,29.90,29.51,12,5,21,0.12
2013-6-15,78,68,54,60,56,53,96,69,43,30.01,29.90,12,3,17,0.01
2013-6-16,80,69,56,68,60,53,93,75,51,29.97,29.79,18,5,27,0.03
2013-6-17,83,73,63,71,66,62,98,81,56,29.89,29.81,11,2,21,0.05
2013-6-18,74,68,64,71,66,63,98,93,88,29.88,29.76,9,1,17,0.16
2013-6-19,77,68,60,64,56,50,96,69,40,30.10,29.84,9,3,16,0.01
2013-6-20,78,65,55,65,58,54,96,80,52,30.22,30.10,11,3,18,0.00
2013-6-22,84,80,74,69,67,65,75,64,55,30.20,30.06,11,6,16,0.00
2013-6-23,84,75,64,73,69,63,96,81,61,30.14,30.00,10,3,17,0.01
2013-6-24,90,78,69,74,70,65,99,81,44,30.05,29.94,12,3,20,0.32
2013-6-25,88,76,66,73,69,64,95,80,55,29.98,29.80,15,3,33,0.23
2013-6-26,87,75,66,72,68,64,96,82,58,29.85,29.73,9,3,17,0.12
2013-6-27,85,74,68,74,70,68,100,90,64,29.78,29.52,9,3,14,0.92
2013-6-28,83,75,71,71,69,68,96,84,62,29.53,29.42,14,5,19,0.35
2013-6-29,84,75,66,69,66,61,97,74,48,29.67,29.44,10,3,17,0.00
2013-6-30,84,76,68,74,70,66,95,83,60,29.82,29.65,12,3,22,0.00
2013-7-1,80,74,69,74,71,68,98,91,79,29.94,29.81,13,5,18,0.34
2013-7-2,82,76,74,74,73,71,96,89,74,30.11,29.93,15,7,25,0.24
2013-7-3,84,76,72,75,72,70,95,89,71,30.19,30.11,10,5,17,0.02
2013-7-4,87,79,72,75,73,71,98,83,65,30.20,30.11,12,6,19,0.01
2013-7-5,88,80,73,76,74,72,96,81,60,30.16,30.04,14,6,21,0.00
2013-7-6,90,81,72,76,73,70,96,78,57,30.12,29.99,10,3,13,0.00
2013-7-7,89,79,70,76,72,67,94,79,58,30.03,29.91,18,4,27,0.07
2013-7-8,83,73,68,71,67,-100,97,84,57,30.03,29.96,18,3,25,0.07
2013-7-9,83,75,69,74,71,68,99,87,69,30.03,29.94,10,2,17,0.20
2013-7-10,86,76,71,75,70,-100,99,84,66,29.96,29.78,12,4,17,0.11
2013-7-11,84,76,72,72,68,62,93,77,54,29.88,29.77,8,2,11,0.02
2013-7-12,73,71,69,70,65,60,97,82,69,29.98,29.87,13,4,18,0.71
2013-7-13,84,75,68,74,71,67,99,87,69,30.24,29.98,11,4,16,1.13
2013-7-14,89,78,72,75,73,71,99,84,57,30.29,30.23,10,3,14,0.02
2013-7-15,92,86,75,75,73,71,96,68,52,30.20,30.11,8,4,18,0.00
2013-7-16,92,82,75,74,71,67,96,72,45,30.19,30.10,10,2,16,0.00
2013-7-17,85,74,70,73,70,68,93,87,67,30.16,30.11,0,0,2,0.00
2013-7-18,93,86,79,76,75,73,86,71,54,29.95,29.93,5,1,8,0.00
2013-7-19,94,84,75,78,75,69,96,77,57,29.95,29.76,13,4,17,0.00
2013-7-20,88,81,73,74,71,68,90,72,58,29.82,29.71,16,5,24,0.00
2013-7-21,79,77,75,69,68,68,80,76,70,29.82,29.79,3,1,5,0.00
2013-7-22,85,78,73,75,73,71,96,84,70,29.86,29.72,11,4,16,0.25
2013-7-23,84,76,70,73,71,68,100,86,62,29.73,29.55,10,3,18,1.57
2013-7-24,78,72,64,69,64,53,97,77,51,29.90,29.62,9,4,15,0.00
2013-7-25,73,65,56,61,56,50,83,74,66,30.00,29.90,9,4,15,0.00
2013-7-26,80,71,62,61,59,55,91,68,43,30.03,29.97,6,2,11,0.00
2013-7-27,82,72,60,70,66,58,99,82,64,30.01,29.86,15,4,21,0.38
2013-7-28,82,74,68,72,68,64,97,84,62,29.91,29.83,11,3,17,0.68
2013-7-29,78,71,63,69,60,54,97,71,46,30.09,29.91,11,3,15,0.02
2013-7-30,78,68,57,62,58,55,93,73,50,30.16,30.09,9,2,15,0.00
2013-7-31,80,70,58,67,62,57,96,78,57,30.12,29.97,9,2,13,0.00
2013-8-1,77,72,67,71,68,65,98,89,77,29.97,29.77,6,2,11,0.50
2013-8-2,81,73,66,69,64,59,100,77,49,29.90,29.78,14,4,19,0.01
2013-8-3,76,69,64,68,65,61,93,85,69,29.90,29.83,10,3,15,0.01
2013-8-4,76,68,59,64,58,54,98,73,48,29.96,29.85,11,4,20,0.01
2013-8-5,74,66,55,60,55,50,96,70,45,30.06,29.97,6,2,11,0.01
2013-8-6,73,66,57,64,59,54,92,81,63,30.06,29.99,11,4,18,0.00
2013-8-7,75,70,66,71,67,64,98,91,84,30.05,29.97,10,3,18,0.13
2013-8-8,84,75,69,75,71,68,99,90,69,29.99,29.93,12,4,19,0.31
2013-8-9,82,77,74,76,74,72,97,89,76,29.93,29.78,13,6,27,0.42
2013-8-10,81,74,66,72,66,62,97,78,55,30.01,29.86,8,2,12,0.09
2013-8-11,82,72,62,69,64,59,97,77,56,30.09,29.96,9,2,11,0.26
2013-8-12,83,73,67,71,67,62,99,83,52,29.98,29.87,6,1,9,0.26
2013-8-13,78,68,64,71,64,-100,100,91,72,29.87,29.68,7,2,12,2.00
2013-8-22,83,79,72,72,70,66,88,74,65,29.96,29.85,12,4,14,0.14
2013-8-23,77,70,63,67,64,58,97,81,59,30.07,29.88,6,2,11,0.01
2013-8-24,78,68,59,59,56,53,87,68,44,30.30,30.07,9,2,13,0.00
2013-8-25,79,65,53,64,55,-100,97,74,48,30.37,30.21,10,2,17,0.00
2013-8-26,84,72,61,68,62,55,85,72,55,30.23,29.91,13,4,19,0.00
2013-8-27,85,76,70,70,68,66,89,76,58,29.91,29.83,9,2,17,0.00
2013-8-28,76,72,70,73,71,68,98,96,89,29.83,29.77,8,2,9,0.86
2013-8-29,82,73,68,71,69,67,100,90,68,29.97,29.83,6,2,9,0.05
2013-8-30,84,74,69,74,70,67,94,86,68,29.98,29.82,9,5,15,0.00
2013-8-31,85,76,70,77,72,67,98,88,69,29.84,29.74,9,3,13,0.11
2013-9-1,86,76,69,76,71,-100,100,86,66,29.79,29.71,6,2,12,0.06
2013-9-3,78,72,65,59,57,56,75,61,49,29.89,29.77,10,5,17,0.07
2013-9-4,79,68,57,61,58,55,95,71,47,30.01,29.89,11,4,17,0.00
2013-9-5,76,66,56,63,56,48,97,74,37,30.12,29.94,10,3,17,0.00
2013-9-6,71,60,51,51,44,36,87,59,33,30.22,30.11,8,2,14,0.00
2013-9-7,78,62,45,59,51,43,94,71,39,30.11,29.88,8,2,11,0.00
2013-9-8,79,68,60,66,58,-100,96,73,54,30.04,29.83,10,3,21,0.01
2013-9-9,73,63,50,64,54,45,90,72,58,30.18,30.04,10,4,14,0.01
2013-9-10,88,76,67,76,71,64,95,83,63,30.12,30.01,11,5,16,0.00
2013-9-11,91,80,70,78,73,69,98,80,57,30.09,29.93,14,3,21,0.00
2013-9-13,71,67,58,56,52,49,78,59,47,29.87,29.70,16,7,23,0.05
2013-9-14,60,55,46,51,47,44,94,75,63,30.12,29.87,10,3,19,0.01
2013-9-15,71,54,42,55,46,-100,98,81,52,30.20,30.05,8,2,13,0.00
2013-9-16,68,61,56,59,55,49,97,81,60,30.21,30.00,8,3,16,0.10
2013-9-17,64,53,43,49,43,39,92,71,46,30.40,30.21,11,3,20,0.04
2013-9-18,50,44,42,48,43,41,97,95,92,30.32,30.16,1,0,3,0.00
2013-9-19,75,59,43,57,51,42,97,78,50,30.17,30.04,8,1,12,0.00
2013-9-20,77,64,51,62,56,50,97,78,54,30.06,29.93,10,3,17,0.00
2013-9-21,73,64,56,64,60,54,98,85,65,29.96,29.64,16,5,25,0.00
2013-9-22,65,59,54,60,50,-100,99,75,51,29.91,29.65,11,3,24,0.00
2013-9-23,63,55,49,47,44,41,86,67,53,30.04,29.91,11,4,17,0.00
2013-9-24,70,55,42,50,46,40,94,73,45,30.07,29.90,10,2,14,0.00
2013-9-25,72,57,43,54,47,41,96,74,37,29.95,29.84,6,1,10,0.00
2013-9-26,74,60,48,58,52,47,96,79,48,30.04,29.90,6,1,10,0.00
2013-9-27,70,62,54,57,54,51,94,78,56,30.22,30.04,7,3,12,0.00
2013-9-28,72,60,52,55,52,48,95,77,48,30.28,30.19,8,2,15,0.00
2013-9-29,70,58,46,58,50,-100,98,77,53,30.20,30.03,5,1,15,0.00
2013-9-30,73,60,48,58,52,47,98,80,49,30.05,29.94,7,1,12,0.00
2013-10-1,65,60,53,60,57,51,94,90,84,29.98,29.93,1,0,3,0.00
2013-10-2,83,67,53,64,59,52,98,79,50,30.01,29.92,9,2,16,0.00
2013-10-3,80,69,56,66,61,55,98,78,53,30.08,29.99,8,1,12,0.00
2013-10-4,84,70,60,69,64,59,98,83,56,30.03,29.94,8,2,12,0.00
2013-10-5,85,73,64,72,67,63,100,82,56,30.04,29.95,7,1,12,0.00
2013-10-6,81,72,65,70,67,64,98,85,67,30.00,29.89,8,4,16,0.00
2013-10-7,73,65,55,70,62,46,97,88,70,29.97,29.69,25,7,42,0.00
2013-10-8,65,55,44,51,46,43,98,75,48,30.27,29.97,11,2,17,0.00
2013-10-9,58,53,46,48,46,42,91,77,61,30.33,30.22,11,3,19,0.00
2013-10-10,56,54,51,55,51,47,99,91,76,30.23,29.96,12,7,22,0.00
2013-10-11,63,58,54,60,57,53,100,96,88,30.01,29.92,13,7,20,0.00
2013-10-12,70,63,58,59,52,44,89,68,43,30.17,29.99,15,8,25,0.00
2013-10-13,66,59,53,55,50,-100,86,73,57,30.32,30.16,16,8,26,0.00
2013-10-14,68,56,46,54,49,45,98,81,49,30.32,30.19,3,0,7,0.00
2013-10-15,72,58,46,56,50,45,98,77,47,30.21,30.06,5,1,9,0.00
2013-10-16,65,59,51,60,54,46,94,83,71,30.07,29.88,4,1,8,0.00
2013-10-17,72,64,61,64,61,56,97,89,73,29.88,29.65,12,4,19,0.00
2013-10-18,62,55,44,58,45,41,90,69,50,29.97,29.72,15,5,25,0.00
2013-10-19,61,51,39,53,46,38,97,84,61,29.97,29.72,11,3,17,0.00
2013-10-20,60,50,42,51,39,-100,97,69,44,30.05,29.78,10,5,21,0.00
2013-10-21,64,50,37,47,40,35,96,73,41,30.12,29.92,16,3,23,0.00
2013-10-22,59,50,40,51,43,33,97,78,44,29.92,29.76,11,2,18,0.00
2013-10-23,51,44,38,39,35,31,87,70,46,29.80,29.62,12,-8,15,0.00
2013-10-24,47,41,34,36,31,28,88,71,50,30.05,29.80,14,4,23,0.00
2013-10-25,50,44,35,36,34,29,88,67,54,30.24,30.05,12,5,23,0.00
2013-10-26,53,41,27,36,30,25,94,67,40,30.24,29.88,18,5,27,0.00
2013-10-27,54,46,38,37,32,-100,79,60,44,30.11,29.88,12,3,20,0.00
2013-10-28,59,43,30,38,33,-100,93,71,43,30.27,30.11,5,1,10,0.00
2013-10-29,59,48,40,42,38,35,87,69,48,30.37,30.26,5,1,13,0.00
2013-10-30,60,50,42,53,47,40,96,90,79,30.30,30.12,6,1,11,0.00
2013-10-31,65,57,47,60,55,46,98,92,81,30.18,29.74,12,4,21,0.00
2013-11-1,70,63,51,64,55,46,99,76,46,29.73,29.48,23,9,36,0.00
2013-11-2,63,55,48,50,45,39,91,71,52,29.79,29.59,10,2,17,0.00
2013-11-3,50,43,33,42,30,-100,89,63,41,30.43,29.79,13,6,23,0.00
2013-11-4,44,35,28,25,21,17,73,56,35,30.62,30.45,9,2,15,0.00
2013-11-5,56,45,33,44,36,25,84,71,59,30.60,30.43,8,2,13,0.00
2013-11-6,62,54,48,51,48,44,87,79,65,30.44,30.01,13,4,20,0.00
2013-11-7,57,52,42,56,47,28,97,83,57,30.01,29.80,13,6,25,0.00
2013-11-8,46,41,34,34,29,26,74,62,48,30.24,29.97,15,6,28,0.00
2013-11-9,49,38,27,34,28,-100,92,70,47,30.31,29.96,14,3,21,0.00
2013-11-10,54,44,30,39,32,27,91,65,43,30.12,29.89,18,6,30,0.00
2013-11-11,51,46,37,38,32,28,70,59,48,30.22,29.95,14,5,21,0.00
2013-11-12,49,36,28,37,22,13,78,56,43,30.32,29.92,15,6,26,0.00
2013-11-13,38,31,27,22,17,13,74,57,43,30.42,30.31,13,4,23,0.00
2013-11-14,52,38,25,24,19,14,80,52,22,30.31,30.17,13,3,22,0.00
2013-11-15,54,41,28,32,27,21,79,60,38,30.24,30.14,4,0,6,0.00
2013-11-16,57,47,40,48,41,-100,96,82,66,30.29,30.20,7,1,11,0.00
2013-11-17,61,55,49,57,52,48,99,93,82,30.21,29.71,13,4,21,0.00
2013-11-18,61,56,47,59,40,26,96,58,32,29.84,29.60,17,9,49,0.00
2013-11-19,46,41,34,30,25,21,61,54,45,30.34,29.84,16,8,27,0.00
2013-11-20,44,35,25,26,19,13,82,54,28,30.55,30.33,9,2,15,0.00
2013-11-21,48,39,27,38,27,13,74,63,47,30.57,30.35,5,2,9,0.00
2013-11-22,51,48,46,48,45,40,96,89,79,30.35,29.95,9,1,20,0.00
2013-11-23,52,39,27,47,26,-100,86,60,46,30.10,29.96,20,8,34,0.00
2013-11-24,27,24,21,12,2,-100,66,40,31,30.43,30.10,20,11,36,0.00
2013-11-25,31,25,18,18,12,-100,73,59,45,30.51,30.31,12,-28,15,0.00
2013-11-26,43,33,30,41,25,15,98,75,52,30.31,29.60,15,3,22,0.00
2013-11-27,47,38,28,46,34,17,99,89,63,29.88,29.44,16,8,30,0.00
2013-11-28,32,29,27,21,18,16,74,63,52,30.45,29.86,17,7,32,0.00
2013-11-29,37,29,21,25,20,17,91,70,51,30.71,30.44,8,-9,15,0.00
2013-11-30,36,26,18,26,19,-100,87,75,63,30.71,30.35,8,2,12,0.00
2013-12-1,41,33,23,32,27,22,95,81,64,30.37,29.99,5,0,7,0.00
2013-12-2,46,38,34,34,32,29,87,77,61,29.99,29.84,3,0,5,0.00
2013-12-3,50,41,32,38,34,30,91,78,60,29.98,29.85,7,1,10,0.00
2013-12-4,54,44,32,47,39,30,94,82,68,30.08,29.96,5,1,9,0.00
2013-12-5,57,52,48,57,51,47,100,98,88,30.06,29.88,8,2,15,0.00
2013-12-6,59,45,34,59,44,32,100,96,89,30.14,29.83,8,4,19,0.00
2013-12-7,37,33,29,32,27,-100,95,80,66,30.50,30.08,9,4,16,0.00
2013-12-8,28,26,24,26,21,16,96,81,67,30.56,30.30,9,3,14,0.00
2013-12-9,35,32,27,34,31,26,99,97,96,30.30,29.99,8,-8,13,0.00
2013-12-10,31,29,21,31,26,16,99,91,69,30.14,29.92,10,3,16,0.00
2013-12-11,31,24,10,22,17,8,94,75,57,30.35,30.15,12,3,17,0.00
2013-12-12,26,22,16,21,10,4,88,61,47,30.37,30.18,10,5,20,0.00
2013-12-13,34,25,12,19,15,4,82,65,50,30.31,30.15,12,3,18,0.00
2013-12-14,31,27,24,27,22,-100,97,85,65,30.36,29.74,16,7,29,0.00
2013-12-15,38,31,26,34,27,20,97,85,67,29.86,29.58,17,-5,26,0.00
2013-12-16,30,23,17,23,12,8,79,61,47,30.19,29.86,13,5,25,0.00
2013-12-17,25,22,17,23,18,13,95,86,63,30.18,29.94,4,1,9,0.00
2013-12-18,35,25,15,25,20,14,96,80,56,30.18,29.95,12,3,17,0.00
2013-12-19,43,29,16,29,23,14,93,78,55,30.17,30.03,6,0,8,0.00
2013-12-20,49,40,31,35,32,28,88,72,55,30.08,29.94,4,0,7,0.00
2013-12-21,60,48,38,55,42,-100,94,83,72,29.97,29.85,10,-9,18,0.00
2013-12-22,64,60,57,61,58,55,96,92,86,29.93,29.75,15,7,24,0.00
2013-12-23,57,50,36,56,47,27,100,88,70,30.16,29.87,14,4,23,0.00
2013-12-24,36,31,23,28,21,11,91,66,54,30.39,30.13,15,6,25,0.00
2013-12-25,26,23,18,16,11,7,71,60,52,30.53,30.36,10,3,18,0.00
2013-12-26,35,26,20,28,21,15,92,82,66,30.37,30.18,6,2,13,0.00
2013-12-27,42,29,16,27,22,14,93,76,48,30.36,30.26,6,1,11,0.00
2013-12-28,54,37,21,32,24,-100,90,66,39,30.28,30.06,12,2,18,0.00
2013-12-29,40,38,36,39,35,28,98,87,68,30.08,29.48,11,3,17,0.00
2013-12-30,42,35,25,38,28,13,96,75,59,30.15,29.73,13,-6,26,0.00
2013-12-31,34,26,20,25,16,12,78,66,52,30.29,30.04,16,5,30,0.00
2014-1-1,35,27,18,24,19,12,83,74,62,30.38,30.15,11,-33,13,0.00
2014-1-2,29,26,17,25,22,16,95,86,73,30.15,29.65,11,7,20,0.00